AO-07 1 07530U 74089B 17158.89207074 -.00000039 00000-0 32888-4 0 9998 2 07530 101.6294 127.7598 0012011 342.7215 042.2506 12.53627299947698 UO-11 1 14781U 84021B 17158.92330604 .00000086 00000-0 16912-4 0 9992 2 14781 097.6980 204.9798 0007442 222.5444 137.5194 14.82898959767970 LO-19 1 20442U 90005G 17158.78682459 -.00000004 00000-0 14553-4 0 9994 2 20442 098.5754 095.3965 0011855 169.8968 190.2457 14.32861112430279 HUBBLE 1 20580U 90037B 17158.95555052 .00000465 00000-0 17664-4 0 9995 2 20580 028.4703 068.5195 0002921 076.4895 013.2034 15.08777559288801 MET-2/21 1 22782U 93055A 17158.19894028 -.00000011 00000-0 -23160-4 0 9996 2 22782 082.5495 031.5157 0023669 098.4142 018.0261 13.83801159200315 AO-27 1 22825U 93061C 17158.88667509 -.00000016 00000-0 11688-4 0 9995 2 22825 098.8114 124.3538 0008542 006.6175 353.5118 14.29997643235800 IO-26 1 22826U 93061D 17158.84990877 -.00000009 00000-0 14207-4 0 9991 2 22826 098.8056 124.3997 0008870 356.8130 003.2993 14.30326393235990 FO-29 1 24278U 96046B 17158.92100776 -.00000001 00000-0 36067-4 0 9990 2 24278 098.5656 043.4106 0350503 001.6123 358.6064 13.53076787027379 NOAA-15 1 25338U 98030A 17158.95177503 .00000073 00000-0 49747-4 0 9995 2 25338 098.7816 169.8442 0009651 229.2767 130.7575 14.25797257991424 GO-32 1 25397U 98043D 17158.77694328 -.00000022 00000-0 94801-5 0 9990 2 25397 098.6094 101.3122 0002142 056.2844 303.8539 14.23622976982239 ISS 1 25544U 98067A 17158.85883466 .00002903 00000-0 51317-4 0 9995 2 25544 051.6421 084.8219 0004663 245.8242 219.8714 15.53999267060306 NO-44 1 26931U 01043C 17158.87848422 -.00000036 00000-0 18123-4 0 9993 2 26931 067.0508 115.2136 0007945 267.0534 092.9658 14.30462524818940 SO-50 1 27607U 02058C 17158.44544102 -.00000008 00000-0 19268-4 0 9992 2 27607 064.5540 155.3304 0029829 101.7335 258.7117 14.75328646777546 CO-55 1 27844U 03031E 17158.50609141 .00000053 00000-0 43913-4 0 9992 2 27844 098.6891 167.6538 0010170 022.7614 337.4012 14.22040278722905 CO-57 1 27848U 03031J 17158.50324056 .00000047 00000-0 41197-4 0 9990 2 27848 098.6984 167.9057 0010263 031.5914 328.5878 14.21654563722790 RS-22 1 27939U 03042A 17158.90403903 .00000058 00000-0 18835-4 0 9991 2 27939 097.9378 303.9445 0011631 253.8461 204.6640 14.66567557731818 NOAA-18 1 28654U 05018A 17158.91570131 .00000023 00000-0 37857-4 0 9997 2 28654 099.1825 180.9035 0015493 097.6183 262.6748 14.12339092620853 CO-58 1 28895U 05043F 17158.87446404 .00000125 00000-0 32731-4 0 9991 2 28895 097.8637 321.5964 0017164 168.3446 191.8157 14.63397425619120 Falconsat-3 1 30776U 07006E 17158.32505548 .00001972 00000-0 63536-4 0 9996 2 30776 035.4348 129.1820 0004032 240.0277 120.0048 15.32212019566745 CO-65 1 32785U 08021C 17158.49132009 .00000221 00000-0 29837-4 0 9994 2 32785 097.5668 183.2072 0012695 193.8783 166.2087 14.87884287493387 AAUSAT2 1 32788U 08021F 17158.92329688 .00000666 00000-0 67754-4 0 9999 2 32788 097.5593 195.2576 0012716 154.6455 205.5392 14.93862514494196 DO-64 1 32789U 08021G 17158.91531805 .00001876 00000-0 13682-3 0 9999 2 32789 097.5594 217.3420 0014069 129.8749 230.3717 15.04844114495372 CO-66 1 32791U 08021J 17158.50781183 .00000350 00000-0 41474-4 0 9990 2 32791 097.5638 187.5575 0013473 178.6491 181.4767 14.90215578493624 RS-30 1 32953U 08025A 17158.86656422 .00000011 00000-0 10211-4 0 9999 2 32953 082.5042 245.4462 0017674 307.0571 052.8892 12.43076902410261 PRISM 1 33493U 09002B 17158.93130226 -.00000046 00000-0 15781-5 0 9999 2 33493 098.1705 040.9761 0016365 109.7020 250.5983 14.95654903454394 NOAA-19 1 33591U 09005A 17158.91655348 .00000081 00000-0 69175-4 0 9999 2 33591 099.0917 125.6100 0013070 301.1359 058.8529 14.12185492429083 TISAT-1 1 36799U 10035E 17158.81185967 .00000442 00000-0 51454-4 0 9993 2 36799 098.0605 281.3489 0012357 004.7907 355.3426 14.90385432374386 JUGNU 1 37839U 11058B 17158.33972959 .00000306 00000-0 21389-4 0 9990 2 37839 019.9600 150.1861 0019146 075.1387 062.0378 14.12584538292191 SRMSAT 1 37841U 11058D 17158.38451642 .00000309 00000-0 24841-4 0 9998 2 37841 019.9705 191.3988 0011789 334.5924 142.2387 14.10575985291892 AO-71 1 37854U 11061E 17158.87234086 .00001181 00000-0 70859-4 0 9990 2 37854 101.7043 027.7647 0167825 102.5276 259.4766 15.04047666305084 HRBE 1 37855U 11061F 17158.87586827 .00001114 00000-0 66144-4 0 9992 2 37855 101.7178 025.5808 0181097 108.9849 253.1080 15.03008410304927 ALMASAT-1 1 38078U 12006B 17158.94983496 .00017461 37587-5 19690-3 0 9991 2 38078 069.4366 157.1803 0313269 304.2117 052.9730 15.21779109283381 HORYU-2 1 38340U 12025D 17158.93135572 .00000209 00000-0 38956-4 0 9991 2 38340 098.3760 162.5267 0010853 327.6298 032.4243 14.75335042261513 RS-40 1 38735U 12041C 17158.87012207 .00000017 00000-0 51980-4 0 9998 2 38735 082.4747 329.9952 0017397 051.1147 309.1481 12.42574535220542 BEESAT-3 1 39134U 13015E 17158.66298967 .00001023 00000-0 59637-4 0 9995 2 39134 064.8664 257.2033 0035293 270.7745 088.9337 15.17773281227654 BEESAT-2 1 39136U 13015G 17158.73692695 .00000865 00000-0 55966-4 0 9995 2 39136 064.8701 267.5206 0032017 285.0870 074.6713 15.15062756227457 ZACUBE-1 1 39417U 13066B 17158.76696758 .00000214 00000-0 33750-4 0 9995 2 39417 097.6302 201.4663 0057948 301.6047 057.9518 14.80703607191382 TRITON-1 1 39427U 13066M 17158.78060417 .00000195 00000-0 39156-4 0 9999 2 39427 097.6375 174.7670 0114898 019.7048 340.8543 14.67453196189478 GOMX-1 1 39430U 13066Q 17158.43288858 .00000206 00000-0 45908-4 0 9991 2 39430 097.6645 158.2127 0153503 074.0163 287.7887 14.58862816188511 LO-74 1 39440U 13066AA 17158.88596896 .00000193 00000-0 34281-4 0 9992 2 39440 097.6293 190.8292 0079963 331.5945 028.0917 14.75445505189525 AO-73 1 39444U 13066AE 17158.07585092 .00000261 00000-0 39146-4 0 9994 2 39444 097.6318 201.8492 0057091 300.6388 058.9204 14.81434821189525 SPROUT 1 39770U 14029E 17158.87277884 .00000797 00000-0 96856-4 0 9996 2 39770 097.8715 258.3334 0009361 008.8031 351.3329 14.86219501164758 DUCHIFAT-1 1 40021U 14033M 17158.49307716 .00000431 00000-0 50727-4 0 9990 2 40021 097.9196 071.6442 0012664 340.1804 019.8919 14.89878410161154 NANOSATCBR1 1 40024U 14033Q 17158.69234324 .00000367 00000-0 44801-4 0 9993 2 40024 097.9157 070.7463 0011960 340.8555 019.2211 14.89205537160618 EO-79 1 40025U 14033R 17158.19619737 .00000241 00000-0 32012-4 0 9996 2 40025 097.9138 069.3070 0012229 345.2354 014.8503 14.88410862160490 DTUSAT-2 1 40030U 14033W 17158.19888856 .00000244 00000-0 32619-4 0 9998 2 40030 097.9103 068.4331 0011522 339.9395 020.1367 14.88034627160969 EO-80 1 40032U 14033Y 17158.71139727 .00000254 00000-0 33803-4 0 9991 2 40032 097.9110 068.9511 0011456 338.4011 021.6720 14.87969446160514 ANTELSAT 1 40034U 14033AA 17158.84589930 .00000213 00000-0 39622-4 0 9992 2 40034 097.8608 043.0668 0058300 324.3029 035.4287 14.73691887159016 VELOX-1 1 40057U 14034E 17158.81440137 .00000320 00000-0 52886-4 0 9996 2 40057 098.1889 258.8912 0012477 088.2880 271.9738 14.77114971158374 DAURIA DX 1 1 40071U 14037C 17158.80784351 .00000145 00000-0 26137-4 0 9998 2 40071 098.3368 269.5030 0009978 084.4232 275.8143 14.81014067157580 UKUBE-1 1 40074U 14037F 17158.78258816 .00000344 00000-0 49005-4 0 9990 2 40074 098.3453 273.2774 0005966 083.2657 276.9246 14.83492610157780 HODOYOSHI-1 1 40299U 14070B 17158.92762130 .00000653 00000-0 31374-4 0 9994 2 40299 097.4035 241.8076 0014733 120.8927 358.9138 15.22238831143537 CHUBUSAT-1 1 40300U 14070C 17158.88270755 .00000829 00000-0 40466-4 0 9996 2 40300 097.3958 238.9488 0021971 131.0186 341.9804 15.20837532143375 QSAT-EOS 1 40301U 14070D 17158.93875003 .00001868 00000-0 81241-4 0 9990 2 40301 097.3895 239.0309 0029052 127.5804 343.1798 15.23149150143422 FIREBIRD FU3 1 40377U 15003B 17158.56763425 .00001648 00000-0 73762-4 0 9998 2 40377 099.1223 340.6071 0136991 034.6609 326.3452 15.15326449129554 FIREBIRD FU4 1 40378U 15003C 17158.55999959 .00001645 00000-0 73538-4 0 9999 2 40378 099.1225 340.6344 0137189 034.5914 326.4144 15.15348372129556 GRIFEX 1 40379U 15003D 17158.92599924 .00001253 00000-0 60306-4 0 9993 2 40379 099.1243 338.8924 0143040 040.7834 320.3994 15.12918262129478 DEORBITSAIL 1 40719U 15032E 17158.69894548 .00000401 00000-0 65564-4 0 9992 2 40719 097.9818 052.5751 0016500 168.7022 191.4562 14.76047107102927 NUDT-PHONESAT 1 40900U 15049B 17158.88578580 .00001884 00000-0 92262-4 0 9999 2 40900 097.4427 166.9409 0012260 256.7608 103.2259 15.19344186095040 XW-2A 1 40903U 15049E 17158.95179739 .00001782 00000-0 48746-4 0 9998 2 40903 097.4217 184.5419 0013352 302.7745 057.2213 15.38693016096223 XW-2C 1 40906U 15049H 17158.85895669 .00000610 00000-0 36635-4 0 9990 2 40906 097.4544 164.5361 0013704 244.3727 115.6089 15.14515729094827 XW-2D 1 40907U 15049J 17158.90905715 .00000658 00000-0 39142-4 0 9999 2 40907 097.4513 164.3500 0013074 241.9832 118.0078 15.14617898094833 LILACSAT-2 1 40908U 15049K 17158.96292253 .00000387 00000-0 25494-4 0 9996 2 40908 097.4616 164.1879 0014691 240.0081 119.9692 15.13106269094776 XW-2F 1 40910U 15049M 17158.85063641 .00000982 00000-0 55286-4 0 9997 2 40910 097.4534 164.9613 0013907 239.8151 120.1705 15.15488171094737 XW-2B 1 40911U 15049N 17158.91492090 .00000653 00000-0 38866-4 0 9999 2 40911 097.4556 164.7271 0012979 242.3180 117.6735 15.14580506094737 DCBB 1 40912U 15049P 17158.86139069 .00001114 00000-0 58702-4 0 9992 2 40912 097.4510 166.7840 0014177 231.2493 247.9776 15.17583094094873 TW-1C 1 40926U 15051B 17158.79204867 .00005846 00000-0 13630-3 0 9997 2 40926 097.2313 198.4263 0011415 193.0891 256.4246 15.42562425095474 TW-1A 1 40928U 15051D 17158.83099763 .00002797 00000-0 81823-4 0 9993 2 40928 097.2276 194.8154 0011121 226.4151 188.5637 15.36039535095267 IO-86 1 40931U 15052B 17158.31518060 .00000688 00000-0 69462-5 0 9990 2 40931 006.0010 303.1278 0012525 103.4387 256.7194 14.76530117091505 GomX-3 1 40949U 98067HA 16292.18357804 .08527750 12374-4 77882-3 0 9992 2 40949 51.6055 106.7696 0006699 286.1344 73.8944 16.38002265 59645 LQSat 1 40958U 15057A 17158.87354184 .00000002 00000-0 81576-5 0 9990 2 40958 097.9777 234.3551 0019649 095.4583 264.8849 14.72966781089740 ATHENOXAT-1 1 41168U 15077C 17158.59238426 .00001803 00000-0 64537-4 0 9992 2 41168 014.9901 239.5363 0012072 243.0562 334.4477 15.11551342081583 ChubuSat-2 1 41338U 16012B 17158.43537781 .00000309 00000-0 17502-4 0 9990 2 41338 031.0021 174.1939 0013962 322.9381 037.0289 14.99737653071529 ChubuSat-3 1 41339U 16012C 17158.43147656 .00000284 00000-0 15484-4 0 9998 2 41339 031.0108 173.3800 0013988 330.0301 029.9534 14.99943399071501 Horyu-4 1 41340U 16012D 17158.40936465 .00000424 00000-0 26020-4 0 9995 2 41340 031.0040 171.0761 0014233 337.4848 022.5162 15.00588270071546 OUFTI-1 1 41458U 16025C 17158.92503464 .00001210 00000-0 69551-4 0 9995 2 41458 098.1838 195.9706 0172672 320.7210 038.1592 15.03139375061190 e-st@r-II 1 41459U 16025D 17158.87840868 .00000917 00000-0 53908-4 0 9994 2 41459 098.1883 195.8771 0173908 321.6904 037.2074 15.02996660061175 AAUSAT4 1 41460U 16025E 17158.88130323 .00001933 00000-0 10822-3 0 9991 2 41460 098.1793 195.9762 0166345 319.9777 038.9237 15.03873524061198 MinXSS 1 41474U 98067HU 17125.52237589 .05724416 12300-4 86147-3 0 9995 2 41474 051.6449 208.6967 0008167 329.0747 030.9230 16.33400422055623 CADRE 1 41475U 98067HV 17003.74787607 .12518598 12537-4 55989-3 0 9998 2 41475 51.6110 110.0165 0004040 312.3134 47.7551 16.43344525 36494 NODES 1 1 41477U 98067HX 17158.78863091 .00052995 00000-0 26504-3 0 9997 2 41477 051.6291 052.0670 0003282 098.7477 261.3897 15.81263764060584 NODES 2 1 41478U 98067HY 17158.76408523 .00051169 00000-0 26219-3 0 9996 2 41478 051.6329 052.6765 0002989 097.4949 262.6392 15.80752194060573 LO-87 1 41557U 16033B 17158.83979530 .00001401 00000-0 55527-4 0 9995 2 41557 097.4635 238.3567 0015444 045.8308 314.4197 15.27016068057005 NuSat2 1 41558U 16033C 17158.87198914 .00001261 00000-0 50444-4 0 9996 2 41558 097.4662 238.4410 0014895 044.6999 315.5438 15.26888079057004 Lapan A3 1 41603U 16040E 17158.94012731 .00000298 00000-0 17316-4 0 9995 2 41603 097.4614 221.0349 0015151 104.4072 263.4073 15.19346524053259 Swayam 1 41607U 16040J 17158.06289411 .00001603 00000-0 75815-4 0 9992 2 41607 097.4613 220.4414 0016081 110.1920 250.1047 15.20741456053065 Pratham 1 41783U 16059A 17158.85833919 .00000065 00000-0 22185-4 0 9995 2 41783 098.1677 220.3287 0033511 187.8196 172.2487 14.62837150037233 AlSat 1N 1 41789U 16059G 17158.92294830 .00000098 00000-0 27852-4 0 9994 2 41789 098.1677 220.8756 0028244 181.1800 178.9329 14.64047210037253 ScatSat 1 41790U 16059H 17158.87935547 .00000038 00000-0 20597-4 0 9990 2 41790 098.0657 209.3219 0011573 168.6099 191.5361 14.50109290036916 TY-1 1 41844U 16066D 17158.87631216 .00000956 00000-0 44836-4 0 9995 2 41844 097.4048 166.1721 0014258 272.7986 171.8844 15.22019797031921 CAS-2T 1 41845U 16066E 17158.93052603 .00000047 00000-0 18779-4 0 9998 2 41845 098.7758 174.3402 0365501 275.7674 080.1955 14.37753675030163 Pegasus-1 1 41846U 16066F 17158.97982263 .00000320 00000-0 60726-4 0 9990 2 41846 098.7790 174.1867 0368029 276.8598 079.0857 14.37012119030156 STARS-C 1 41895U 98067KR 17158.86733654 .00020087 00000-0 23849-3 0 9997 2 41895 051.6391 080.6089 0002946 285.9157 074.1512 15.61166287026532 Tancredo 1 1 41931U 98067KT 17158.85375791 .00036910 00000-0 34820-3 0 9994 2 41931 051.6379 078.2495 0004139 219.5965 140.4729 15.66665461022131 ITF-2 1 41932U 98067KU 17158.84937434 .00010172 00000-0 13449-3 0 9998 2 41932 051.6412 082.0007 0004589 226.1068 133.9547 15.58989232022084 AOBA-V3LOX3 1 41935U 98067KX 17158.90559969 .00010487 00000-0 13700-3 0 9990 2 41935 051.6411 081.6233 0003942 230.1825 129.8822 15.59271453022192 OSNSAT 1 41939U 98067KZ 17158.79993347 .00023496 00000-0 25850-3 0 9996 2 41939 051.6394 080.1525 0004960 227.3131 132.7446 15.63026428021462 EO-88 1 42017U 17008BX 17158.90742674 .00001472 00000-0 65772-4 0 9996 2 42017 097.4960 220.3818 0005033 247.7182 112.3521 15.22936918017073 SOMP2 1 42700U 98067LH 17158.88648691 .00009430 00000-0 14246-3 0 9991 2 42700 051.6405 084.4843 0005718 293.6867 066.3524 15.55462122003494 HAVELSAT 1 42701U 98067LJ 17158.88676222 .00008823 00000-0 13396-3 0 9993 2 42701 051.6408 084.4863 0005702 294.0943 065.9452 15.55417222003488 Columbia 1 42702U 98067LK 17158.88410154 .00019214 00000-0 27842-3 0 9991 2 42702 051.6403 084.4684 0005602 287.2660 072.7718 15.55869851003417 PHOENIX 1 42706U 98067LP 17158.88716306 .00010132 00000-0 15266-3 0 9990 2 42706 051.6407 084.4901 0000616 268.8838 091.2082 15.55440974003409 X-CubeSat 1 42707U 98067LQ 17158.88740278 .00009984 00000-0 15060-3 0 9991 2 42707 051.6405 084.4911 0000731 263.6903 096.4005 15.55429487003399 qbee 1 42708U 98067LR 17158.88776308 .00009575 00000-0 14491-3 0 9998 2 42708 051.6406 084.4935 0000820 263.5714 096.5184 15.55395360003352 ZA-AeroSat 1 42713U 98067LU 17158.89048807 .00008270 00000-0 12704-3 0 9997 2 42713 051.6406 084.5115 0001889 203.2076 156.8830 15.55198542003066 LINK 1 42714U 98067LV 17158.89078497 .00008987 00000-0 13737-3 0 9998 2 42714 051.6405 084.5134 0002102 211.0779 149.0088 15.55210295003174 UPSat 1 42716U 98067LX 17158.95319376 .00010900 00000-0 16395-3 0 9992 2 42716 051.6405 084.1805 0004014 299.4021 060.6569 15.55398712003208 SpaceCube 1 42717U 98067LY 17158.88977019 .00009304 00000-0 14154-3 0 9996 2 42717 051.6406 084.5067 0004012 297.9695 062.0890 15.55292929002432 Hoopoe 1 42718U 98067LZ 17158.88958099 .00010380 00000-0 15683-3 0 9998 2 42718 051.6406 084.5055 0004010 296.9047 063.1534 15.55334999002439 UNSW-EC0 1 42721U 98067MA 17158.83161727 .00013452 00000-0 20250-3 0 9990 2 42721 051.6405 084.8672 0007119 271.8868 088.1308 15.55126663002125 NJUST-1 1 42722U 98067MB 17158.63964781 .00008405 00000-0 13013-3 0 9991 2 42722 051.6406 085.8352 0007023 272.4510 087.5677 15.54946491002094 Challenger 1 42723U 98067MC 17158.83230951 .00010480 00000-0 16014-3 0 9999 2 42723 051.6406 084.8717 0006919 272.4409 087.5790 15.55000544002108 DUTHsat 1 42724U 98067MD 17158.76827118 .00013194 00000-0 19957-3 0 9993 2 42724 051.6406 085.1942 0006053 274.7863 085.2437 15.55021851002018 LilacSat-1 1 42725U 98067ME 17158.76882626 .00008870 00000-0 13721-3 0 9997 2 42725 051.6408 085.1980 0006024 276.2416 083.7888 15.54892302002011 nSIGHT1 1 42726U 98067MF 17158.76926877 .00006068 00000-0 96468-4 0 9992 2 42726 051.6408 085.2010 0006001 277.7446 082.2864 15.54804294002023 QBITO 1 42728U 98067MH 17158.76823844 .00009821 00000-0 15066-3 0 9998 2 42728 051.6408 085.1943 0003091 287.1186 072.9467 15.54987210001823 Aalto-2 1 42729U 98067MJ 17158.76820493 .00009872 00000-0 15137-3 0 9991 2 42729 051.6407 085.1942 0003072 287.2192 072.8463 15.54993680001833 SUSat 1 42730U 98067MK 17158.76850572 .00010428 00000-0 15971-3 0 9999 2 42730 051.6407 085.1964 0003124 285.5500 074.5146 15.54955346001824 i-INSPIRE II 1 42731U 98067ML 17158.76817449 .00009800 00000-0 15006-3 0 9997 2 42731 051.6400 085.1928 0007154 217.3649 142.6845 15.55029653001874 PolyITAN-2-SAU 1 42732U 98067MM 17158.76812296 .00009906 00000-0 15153-3 0 9993 2 42732 051.6399 085.1928 0007078 217.5173 142.5325 15.55041366001878 SNUSAT-1 1 42733U 98067MN 17158.76853139 .00009413 00000-0 14469-3 0 9997 2 42733 051.6401 085.1952 0007030 218.5590 141.4899 15.54978419001873 ExAlta-1 1 42734U 98067MP 17158.76821478 .00009425 00000-0 14450-3 0 9992 2 42734 051.6402 085.1933 0008606 244.8204 115.1895 15.55037280001820 Aoxiang-1 1 42735U 98067MQ 17158.83276886 .00008363 00000-0 12929-3 0 9997 2 42735 051.6407 084.8749 0007714 269.2519 090.7588 15.54990625003252 BeEagleSat 1 42736U 98067MR 17158.76873187 .00008501 00000-0 13143-3 0 9990 2 42736 051.6406 085.1972 0007569 268.5070 091.5054 15.54965027001934 Atlantis 1 42737U 98067MS 17158.83212376 .00017580 00000-0 26154-3 0 9999 2 42737 051.6403 084.8705 0007493 265.5952 094.4183 15.55206285001833 /EX